Location: Unspecified
(0.0000°N, 0.0000°E)
Time: 12:54:18
(UTC+01:00)

SJ-6B - Visible Passes

Search period start: 08 December 2016 00:00
Search period end: 18 December 2016 00:00
Orbit: 511 x 585 km, 97.8° (Epoch: 08 December)

Date Brightness Start Highest point End Pass type
(mag) Time Alt. Az. Time Alt. Az. Time Alt. Az.
08 Dec 3.3 20:18:51 10° S 20:22:38 57° W 20:26:19 10° NNW visible
09 Dec 2.9 20:14:03 10° S 20:17:51 70° WSW 20:21:35 10° NNW visible
10 Dec 2.7 20:09:16 10° S 20:13:05 85° W 20:16:49 10° NNW visible
11 Dec 2.5 20:04:30 10° SSE 20:08:18 79° ENE 20:12:02 10° N visible
12 Dec 2.6 19:59:45 10° SSE 20:03:32 65° ENE 20:07:13 10° N visible
13 Dec 2.7 19:55:03 10° SSE 19:58:44 53° ENE 20:02:22 10° N visible
14 Dec 3.0 19:50:21 10° SSE 19:53:57 43° ENE 19:57:30 10° N visible
15 Dec 3.2 19:45:42 10° SE 19:49:10 36° E 19:52:36 10° NNE visible
16 Dec 3.5 19:41:04 10° SE 19:44:23 30° ENE 19:47:39 10° NNE visible
17 Dec 3.7 19:36:29 10° SE 19:39:35 25° ENE 19:42:40 10° NNE visible
